| time (UTC) | temp F | wind direction | speed knots | gust knots | rain 1hr in | rain 24hr in | rain mn in | humidity % | barometer mb |
| 20260901011949 | 44 | 43 | 3.5 | 13.0 | 0.00 | 0.00 | 0.00 | 10 | 961.3 |
| 20260901011449 | 44 | 162 | 3.5 | 12.2 | 0.00 | 0.00 | 0.00 | 10 | 961.2 |
| 20260901010949 | 45 | 228 | 4.3 | 12.2 | 0.00 | 0.00 | 0.00 | 99 | 961.3 |
| 20260901010449 | 45 | 64 | 3.5 | 11.3 | 0.00 | 0.00 | 0.00 | 99 | 961.2 |
| 20260901005949 | 45 | 130 | 3.5 | 11.3 | 0.00 | 0.00 | 0.00 | 10 | 961.3 |
| 20260901005449 | 45 | 91 | 3.5 | 11.3 | 0.00 | 0.00 | 0.00 | 99 | 961.3 |
| 20260901004949 | 45 | 102 | 3.5 | 11.3 | 0.00 | 0.00 | 0.00 | 99 | 961.3 |
| 20260901004449 | 45 | 0 | 4.3 | 12.2 | 0.00 | 0.00 | 0.00 | 99 | 961.3 |
| 20260901003949 | 45 | 107 | 4.3 | 13.9 | 0.00 | 0.00 | 0.00 | 99 | 961.3 |
| 20260901003449 | 45 | 134 | 3.5 | 13.9 | 0.00 | 0.00 | 0.00 | 99 | 961.3 |
| 20260901002949 | 45 | 106 | 3.5 | 13.9 | 0.00 | 0.00 | 0.00 | 99 | 961.4 |
| 20260901002449 | 45 | 105 | 3.5 | 10.4 | 0.00 | 0.00 | 0.00 | 99 | 961.4 |
| 20260901001949 | 45 | 128 | 3.5 | 12.2 | 0.00 | 0.00 | 0.00 | 99 | 961.4 |
| 20260901001448 | 46 | 89 | 3.5 | 12.2 | 0.00 | 0.00 | 0.00 | 99 | 961.4 |
| 20260901000948 | 46 | 173 | 4.3 | 9.6 | 0.00 | 0.00 | 0.00 | 99 | 961.3 |
| 20260901000450 | 46 | 147 | 3.5 | 9.6 | 0.00 | 0.00 | 0.00 | 99 | 961.4 |
| 20260831235948 | 46 | 144 | 3.5 | 11.3 | 0.00 | 0.00 | 0.00 | 99 | 961.3 |
| 20260831235448 | 46 | 161 | 3.5 | 11.3 | 0.00 | 0.00 | 0.00 | 99 | 961.2 |
| 20260831234948 | 46 | 155 | 3.5 | 13.0 | 0.00 | 0.00 | 0.00 | 99 | 961.4 |
| 20260831234448 | 46 | 123 | 3.5 | 13.9 | 0.00 | 0.00 | 0.00 | 99 | 961.3 |
| 20260831233948 | 46 | 176 | 4.3 | 13.9 | 0.00 | 0.00 | 0.00 | 99 | 961.2 |
| 20260831233448 | 46 | 67 | 4.3 | 9.6 | 0.00 | 0.00 | 0.00 | 99 | 961.2 |
| 20260831232948 | 46 | 59 | 3.5 | 11.3 | 0.00 | 0.00 | 0.00 | 10 | 961.2 |
| 20260831232448 | 46 | 92 | 3.5 | 11.3 | 0.00 | 0.00 | 0.00 | 10 | 961.3 |
| 20260831231948 | 46 | 63 | 3.5 | 9.6 | 0.00 | 0.00 | 0.00 | 10 | 961.2 |
| 20260831231448 | 46 | 210 | 3.5 | 9.6 | 0.00 | 0.00 | 0.00 | 10 | 961.3 |
| 20260831230947 | 46 | 107 | 3.5 | 10.4 | 0.00 | 0.00 | 0.00 | 10 | 961.2 |
| 20260831230447 | 46 | 63 | 3.5 | 10.4 | 0.00 | 0.00 | 0.00 | 99 | 961.2 |
| 20260831225947 | 46 | 122 | 3.5 | 12.2 | 0.00 | 0.00 | 0.00 | 99 | 961.2 |
| 20260831225447 | 46 | 120 | 3.5 | 12.2 | 0.00 | 0.00 | 0.00 | 99 | 961.3 |
| 20260831224947 | 46 | 166 | 3.5 | 13.0 | 0.00 | 0.00 | 0.00 | 99 | 961.2 |
| 20260831224447 | 46 | 160 | 3.5 | 13.0 | 0.00 | 0.00 | 0.00 | 99 | 961.2 |
| 20260831223947 | 46 | 70 | 3.5 | 13.0 | 0.00 | 0.00 | 0.00 | 99 | 961.1 |
| 20260831223447 | 46 | 73 | 3.5 | 11.3 | 0.00 | 0.00 | 0.00 | 10 | 961.1 |
| 20260831222947 | 46 | 117 | 3.5 | 11.3 | 0.00 | 0.00 | 0.00 | 10 | 961.0 |
| 20260831222447 | 46 | 110 | 3.5 | 11.3 | 0.00 | 0.00 | 0.00 | 10 | 961.0 |
| 20260831221947 | 46 | 148 | 3.5 | 11.3 | 0.00 | 0.00 | 0.00 | 10 | 961.1 |
| 20260831221447 | 46 | 11 | 2.6 | 11.3 | 0.00 | 0.00 | 0.00 | 10 | 961.0 |
| 20260831220947 | 47 | 198 | 3.5 | 11.3 | 0.00 | 0.00 | 0.00 | 99 | 961.0 |
| 20260831220447 | 47 | 136 | 3.5 | 10.4 | 0.00 | 0.00 | 0.00 | 99 | 961.1 |
| 20260831215946 | 47 | 167 | 3.5 | 10.4 | 0.00 | 0.00 | 0.00 | 99 | 961.0 |
| 20260831215446 | 47 | 119 | 3.5 | 7.8 | 0.00 | 0.00 | 0.00 | 99 | 961.0 |
| 20260831214946 | 47 | 130 | 3.5 | 7.8 | 0.00 | 0.00 | 0.00 | 99 | 961.0 |
| 20260831214446 | 47 | 146 | 2.6 | 7.8 | 0.00 | 0.00 | 0.00 | 99 | 961.0 |
| 20260831213946 | 47 | 79 | 2.6 | 8.7 | 0.00 | 0.00 | 0.00 | 99 | 960.9 |
| 20260831213446 | 47 | 67 | 2.6 | 8.7 | 0.00 | 0.00 | 0.00 | 99 | 961.1 |
| 20260831212946 | 47 | 167 | 2.6 | 8.7 | 0.00 | 0.00 | 0.00 | 99 | 961.1 |
| 20260831212446 | 48 | 155 | 2.6 | 8.7 | 0.00 | 0.00 | 0.00 | 10 | 961.0 |
| 20260831211946 | 48 | 86 | 2.6 | 9.6 | 0.00 | 0.00 | 0.00 | 10 | 961.2 |
| 20260831211446 | 47 | 98 | 2.6 | 9.6 | 0.00 | 0.00 | 0.00 | 10 | 961.0 |
| 20260831210946 | 48 | 91 | 2.6 | 7.8 | 0.00 | 0.00 | 0.00 | 99 | 960.9 |
| 20260831210446 | 48 | 142 | 2.6 | 7.8 | 0.00 | 0.00 | 0.00 | 10 | 961.1 |
| 20260831205946 | 48 | 117 | 1.7 | 7.8 | 0.00 | 0.00 | 0.00 | 10 | 961.1 |
| 20260831205446 | 48 | 144 | 1.7 | 7.8 | 0.00 | 0.00 | 0.00 | 10 | 961.0 |
| 20260831204946 | 48 | 108 | 1.7 | 9.6 | 0.00 | 0.00 | 0.00 | 10 | 961.0 |
| 20260831204446 | 48 | 172 | 1.7 | 9.6 | 0.00 | 0.00 | 0.00 | 10 | 961.0 |
| 20260831203945 | 48 | 125 | 1.7 | 9.6 | 0.00 | 0.00 | 0.00 | 10 | 961.0 |
| 20260831203445 | 48 | 99 | 1.7 | 7.0 | 0.00 | 0.00 | 0.00 | 10 | 961.0 |
| 20260831202945 | 48 | 122 | 1.7 | 9.6 | 0.00 | 0.00 | 0.00 | 10 | 960.9 |
| 20260831202445 | 48 | 107 | 2.6 | 12.2 | 0.00 | 0.00 | 0.00 | 10 | 960.9 |
| 20260831201945 | 48 | 140 | 2.6 | 12.2 | 0.00 | 0.00 | 0.00 | 10 | 960.8 |
| 20260831201445 | 48 | 188 | 2.6 | 7.8 | 0.00 | 0.00 | 0.00 | 10 | 961.0 |
| 20260831200945 | 48 | 177 | 1.7 | 7.8 | 0.00 | 0.00 | 0.00 | 10 | 961.0 |
| 20260831200445 | 48 | 64 | 2.6 | 7.0 | 0.00 | 0.00 | 0.00 | 10 | 961.0 |
| 20260831195945 | 48 | 254 | 3.5 | 9.6 | 0.00 | 0.00 | 0.00 | 10 | 960.9 |
| 20260831195445 | 48 | 215 | 3.5 | 9.6 | 0.00 | 0.00 | 0.00 | 10 | 961.0 |
| 20260831194945 | 49 | 189 | 3.5 | 9.6 | 0.00 | 0.00 | 0.00 | 10 | 960.9 |
| 20260831194445 | 49 | 234 | 3.5 | 7.8 | 0.00 | 0.00 | 0.00 | 10 | 960.7 |
| 20260831193945 | 49 | 223 | 3.5 | 7.8 | 0.00 | 0.00 | 0.00 | 10 | 960.8 |
| 20260831193445 | 49 | 247 | 3.5 | 7.8 | 0.00 | 0.00 | 0.00 | 10 | 960.8 |
| 20260831192944 | 49 | 225 | 3.5 | 7.8 | 0.00 | 0.00 | 0.00 | 10 | 960.8 |
| 20260831192444 | 49 | 231 | 2.6 | 9.6 | 0.00 | 0.00 | 0.00 | 10 | 960.8 |
| 20260831191944 | 49 | 240 | 2.6 | 9.6 | 0.00 | 0.00 | 0.00 | 10 | 960.7 |
| 20260831191444 | 49 | 99 | 2.6 | 6.1 | 0.00 | 0.00 | 0.00 | 10 | 960.7 |
| 20260831190944 | 49 | 233 | 3.5 | 7.8 | 0.00 | 0.00 | 0.00 | 10 | 960.7 |
| 20260831190444 | 50 | 223 | 4.3 | 7.8 | 0.00 | 0.00 | 0.00 | 10 | 960.7 |
| 20260831185944 | 50 | 237 | 4.3 | 10.4 | 0.00 | 0.00 | 0.00 | 10 | 960.8 |
| 20260831185444 | 50 | 208 | 4.3 | 10.4 | 0.00 | 0.00 | 0.00 | 10 | 960.5 |
| 20260831184944 | 50 | 213 | 3.5 | 9.6 | 0.00 | 0.00 | 0.00 | 10 | 960.5 |
| 20260831184444 | 50 | 122 | 3.5 | 13.0 | 0.00 | 0.00 | 0.00 | 10 | 960.5 |
| 20260831183944 | 51 | 115 | 2.6 | 13.0 | 0.00 | 0.00 | 0.00 | 10 | 960.5 |
| 20260831183444 | 51 | 79 | 2.6 | 7.8 | 0.00 | 0.00 | 0.00 | 10 | 960.5 |
| 20260831182944 | 51 | 234 | 2.6 | 8.7 | 0.00 | 0.00 | 0.00 | 10 | 960.5 |
| 20260831182444 | 51 | 191 | 3.5 | 10.4 | 0.00 | 0.00 | 0.00 | 10 | 960.3 |
| 20260831181943 | 51 | 145 | 4.3 | 14.8 | 0.00 | 0.00 | 0.00 | 10 | 960.2 |
| 20260831181443 | 51 | 283 | 4.3 | 14.8 | 0.00 | 0.00 | 0.00 | 10 | 960.3 |
| 20260831180943 | 52 | 237 | 4.3 | 14.8 | 0.00 | 0.00 | 0.00 | 99 | 960.1 |
| 20260831180443 | 52 | 228 | 4.3 | 14.8 | 0.00 | 0.00 | 0.00 | 99 | 960.1 |
| 20260831175913 | 52 | 244 | 3.5 | 13.9 | 0.00 | 0.00 | 0.00 | 10 | 959.9 |
| 20260831175413 | 52 | 153 | 3.5 | 11.3 | 0.00 | 0.00 | 0.00 | 10 | 959.8 |
| 20260831174913 | 52 | 135 | 3.5 | 11.3 | 0.00 | 0.00 | 0.00 | 10 | 959.9 |
| 20260831174413 | 52 | 178 | 3.5 | 9.6 | 0.00 | 0.00 | 0.00 | 99 | 959.9 |
| 20260831173913 | 53 | 121 | 3.5 | 9.6 | 0.00 | 0.00 | 0.00 | 10 | 959.9 |
| 20260831173413 | 53 | 83 | 3.5 | 9.6 | 0.00 | 0.00 | 0.00 | 10 | 959.9 |
| 20260831172913 | 53 | 271 | 3.5 | 14.8 | 0.00 | 0.00 | 0.00 | 10 | 959.8 |
| 20260831172413 | 53 | 114 | 3.5 | 14.8 | 0.00 | 0.00 | 0.00 | 10 | 959.8 |
| 20260831171913 | 53 | 106 | 4.3 | 12.2 | 0.00 | 0.00 | 0.00 | 10 | 959.8 |
| 20260831171413 | 53 | 127 | 4.3 | 12.2 | 0.00 | 0.00 | 0.00 | 10 | 959.8 |
| 20260831170913 | 53 | 233 | 3.5 | 11.3 | 0.00 | 0.00 | 0.00 | 10 | 959.8 |
| 20260831170413 | 53 | 246 | 3.5 | 11.3 | 0.00 | 0.00 | 0.00 | 10 | 959.7 |
| 20260831165913 | 53 | 77 | 3.5 | 9.6 | 0.00 | 0.00 | 0.00 | 10 | 959.4 |
| 20260831165413 | 53 | 89 | 4.3 | 10.4 | 0.00 | 0.00 | 0.00 | 10 | 959.6 |
| 20260831164912 | 53 | 172 | 3.5 | 10.4 | 0.00 | 0.00 | 0.00 | 10 | 959.4 |
| 20260831164412 | 53 | 251 | 2.6 | 9.6 | 0.00 | 0.00 | 0.00 | 10 | 959.5 |
| 20260831163912 | 53 | 119 | 3.5 | 10.4 | 0.00 | 0.00 | 0.00 | 10 | 959.3 |
| 20260831163412 | 53 | 153 | 3.5 | 10.4 | 0.00 | 0.00 | 0.00 | 10 | 959.5 |
| 20260831162912 | 53 | 169 | 3.5 | 12.2 | 0.00 | 0.00 | 0.00 | 10 | 959.4 |
| 20260831162412 | 53 | 124 | 4.3 | 12.2 | 0.00 | 0.00 | 0.00 | 10 | 959.4 |
| 20260831161912 | 53 | 89 | 4.3 | 12.2 | 0.00 | 0.00 | 0.00 | 10 | 959.4 |
| 20260831161412 | 54 | 144 | 3.5 | 12.2 | 0.00 | 0.00 | 0.00 | 10 | 959.4 |
| 20260831160912 | 54 | 224 | 3.5 | 12.2 | 0.00 | 0.00 | 0.00 | 10 | 959.1 |
| 20260831160412 | 54 | 156 | 3.5 | 12.2 | 0.00 | 0.00 | 0.00 | 10 | 959.1 |
| 20260831155912 | 54 | 45 | 3.5 | 13.0 | 0.00 | 0.00 | 0.00 | 10 | 959.1 |
| 20260831155412 | 54 | 174 | 3.5 | 13.0 | 0.00 | 0.00 | 0.00 | 10 | 959.1 |
| 20260831154912 | 54 | 180 | 3.5 | 13.9 | 0.00 | 0.00 | 0.00 | 10 | 959.1 |
| 20260831154412 | 55 | 188 | 3.5 | 13.9 | 0.00 | 0.00 | 0.00 | 10 | 959.3 |
| 20260831153912 | 55 | 43 | 3.5 | 11.3 | 0.00 | 0.00 | 0.00 | 10 | 959.2 |
| 20260831153412 | 55 | 111 | 3.5 | 8.7 | 0.00 | 0.00 | 0.00 | 10 | 959.3 |
| 20260831152912 | 55 | 188 | 3.5 | 9.6 | 0.00 | 0.00 | 0.00 | 10 | 959.2 |
| 20260831152411 | 55 | 175 | 3.5 | 10.4 | 0.00 | 0.00 | 0.00 | 10 | 959.2 |
| 20260831151912 | 55 | 97 | 3.5 | 10.4 | 0.00 | 0.00 | 0.00 | 10 | 959.2 |
| 20260831151411 | 55 | 131 | 3.5 | 12.2 | 0.00 | 0.00 | 0.00 | 10 | 959.2 |
| 20260831150911 | 55 | 135 | 2.6 | 12.2 | 0.00 | 0.00 | 0.00 | 10 | 959.2 |
| 20260831150411 | 55 | 125 | 2.6 | 10.4 | 0.00 | 0.00 | 0.00 | 10 | 959.2 |
| 20260831145911 | 56 | 119 | 2.6 | 12.2 | 0.00 | 0.00 | 0.00 | 10 | 959.2 |
| 20260831145411 | 55 | 121 | 3.5 | 12.2 | 0.00 | 0.00 | 0.00 | 10 | 959.2 |
| 20260831144911 | 56 | 179 | 3.5 | 9.6 | 0.00 | 0.00 | 0.00 | 10 | 959.1 |
| 20260831144411 | 56 | 169 | 2.6 | 9.6 | 0.00 | 0.00 | 0.00 | 10 | 959.0 |
| 20260831143911 | 56 | 126 | 3.5 | 9.6 | 0.00 | 0.00 | 0.00 | 10 | 959.1 |
| 20260831143411 | 56 | 68 | 3.5 | 9.6 | 0.00 | 0.00 | 0.00 | 10 | 959.1 |
| 20260831142911 | 56 | 245 | 3.5 | 10.4 | 0.00 | 0.00 | 0.00 | 10 | 959.1 |
| 20260831142410 | 56 | 92 | 3.5 | 10.4 | 0.00 | 0.00 | 0.00 | 10 | 959.0 |
| 20260831141910 | 56 | 203 | 3.5 | 10.4 | 0.00 | 0.00 | 0.00 | 10 | 959.0 |
| 20260831141410 | 56 | 224 | 2.6 | 9.6 | 0.00 | 0.00 | 0.00 | 10 | 958.9 |
| 20260831140910 | 56 | 120 | 2.6 | 9.6 | 0.00 | 0.00 | 0.00 | 10 | 959.0 |
| 20260831140410 | 55 | 60 | 2.6 | 10.4 | 0.00 | 0.00 | 0.00 | 10 | 958.9 |
| 20260831135910 | 55 | 67 | 2.6 | 10.4 | 0.00 | 0.00 | 0.00 | 10 | 959.0 |
| 20260831135410 | 55 | 141 | 3.5 | 8.7 | 0.00 | 0.00 | 0.00 | 10 | 958.7 |
| 20260831134910 | 55 | 255 | 3.5 | 10.4 | 0.00 | 0.00 | 0.00 | 10 | 958.7 |
| 20260831134410 | 55 | 264 | 3.5 | 11.3 | 0.00 | 0.00 | 0.00 | 10 | 958.7 |
| 20260831133910 | 55 | 146 | 3.5 | 11.3 | 0.00 | 0.00 | 0.00 | 10 | 958.8 |
| 20260831133410 | 55 | 225 | 3.5 | 13.9 | 0.00 | 0.00 | 0.00 | 10 | 958.9 |
| 20260831132910 | 55 | 56 | 4.3 | 13.9 | 0.00 | 0.00 | 0.00 | 10 | 958.8 |
| 20260831132409 | 55 | 209 | 4.3 | 13.9 | 0.00 | 0.00 | 0.00 | 10 | 958.8 |
| 20260831131909 | 55 | 135 | 3.5 | 9.6 | 0.00 | 0.00 | 0.00 | 10 | 958.8 |
| 20260831131409 | 55 | 169 | 3.5 | 8.7 | 0.00 | 0.00 | 0.00 | 10 | 958.8 |
| 20260831130909 | 55 | 289 | 2.6 | 9.6 | 0.00 | 0.00 | 0.00 | 10 | 958.8 |
| 20260831130409 | 55 | 107 | 3.5 | 11.3 | 0.00 | 0.00 | 0.00 | 10 | 958.7 |
| 20260831125909 | 55 | 121 | 4.3 | 13.9 | 0.00 | 0.00 | 0.00 | 10 | 958.6 |
| 20260831125409 | 55 | 99 | 4.3 | 13.9 | 0.00 | 0.00 | 0.00 | 10 | 958.6 |
| 20260831124909 | 54 | 196 | 3.5 | 9.6 | 0.00 | 0.00 | 0.00 | 10 | 958.6 |
| 20260831124409 | 54 | 164 | 3.5 | 10.4 | 0.00 | 0.00 | 0.00 | 10 | 958.6 |
| 20260831123909 | 54 | 155 | 3.5 | 10.4 | 0.00 | 0.00 | 0.00 | 10 | 958.5 |
| 20260831123409 | 54 | 77 | 3.5 | 12.2 | 0.00 | 0.00 | 0.00 | 10 | 958.4 |
| 20260831122909 | 54 | 161 | 3.5 | 12.2 | 0.00 | 0.00 | 0.00 | 10 | 958.6 |
| 20260831122409 | 54 | 206 | 3.5 | 13.0 | 0.00 | 0.00 | 0.00 | 10 | 958.5 |
| 20260831121909 | 54 | 102 | 3.5 | 13.0 | 0.00 | 0.00 | 0.00 | 10 | 958.6 |
| 20260831121409 | 55 | 210 | 3.5 | 9.6 | 0.00 | 0.00 | 0.00 | 10 | 958.6 |
| 20260831120909 | 54 | 218 | 3.5 | 7.8 | 0.00 | 0.00 | 0.00 | 10 | 958.5 |
| 20260831120409 | 54 | 303 | 3.5 | 8.7 | 0.00 | 0.00 | 0.00 | 10 | 958.4 |
| 20260831115909 | 54 | 250 | 4.3 | 9.6 | 0.00 | 0.00 | 0.00 | 10 | 958.5 |
| 20260831115339 | 54 | 231 | 4.3 | 11.3 | 0.00 | 0.00 | 0.00 | 10 | 958.4 |
| 20260831114838 | 54 | 232 | 4.3 | 11.3 | 0.00 | 0.00 | 0.00 | 10 | 958.2 |
| 20260831114338 | 54 | 201 | 4.3 | 11.3 | 0.00 | 0.00 | 0.00 | 10 | 958.1 |
| 20260831113838 | 55 | 230 | 3.5 | 10.4 | 0.00 | 0.00 | 0.00 | 10 | 958.2 |
| 20260831113338 | 54 | 208 | 4.3 | 10.4 | 0.00 | 0.00 | 0.00 | 10 | 958.1 |
| 20260831112838 | 54 | 266 | 4.3 | 12.2 | 0.00 | 0.00 | 0.00 | 10 | 958.1 |
| 20260831112338 | 54 | 242 | 4.3 | 12.2 | 0.00 | 0.00 | 0.00 | 10 | 958.2 |
| 20260831111838 | 55 | 223 | 3.5 | 12.2 | 0.00 | 0.00 | 0.00 | 10 | 958.1 |
| 20260831111338 | 55 | 220 | 3.5 | 11.3 | 0.00 | 0.00 | 0.00 | 10 | 958.0 |
| 20260831110838 | 55 | 232 | 3.5 | 12.2 | 0.00 | 0.00 | 0.00 | 10 | 958.1 |
| 20260831110338 | 54 | 144 | 3.5 | 12.2 | 0.00 | 0.00 | 0.00 | 10 | 958.1 |
| 20260831105838 | 54 | 249 | 3.5 | 10.4 | 0.00 | 0.00 | 0.00 | 10 | 958.0 |
| 20260831105338 | 54 | 224 | 3.5 | 10.4 | 0.00 | 0.00 | 0.00 | 10 | 958.0 |
| 20260831104838 | 53 | 236 | 2.6 | 7.8 | 0.00 | 0.00 | 0.00 | 10 | 958.0 |
| 20260831104338 | 53 | 79 | 2.6 | 7.8 | 0.00 | 0.00 | 0.00 | 10 | 958.0 |
| 20260831103838 | 53 | 207 | 3.5 | 9.6 | 0.00 | 0.00 | 0.00 | 10 | 957.9 |
| 20260831103337 | 53 | 278 | 3.5 | 9.6 | 0.00 | 0.00 | 0.00 | 10 | 958.0 |
| 20260831102837 | 53 | 260 | 3.5 | 8.7 | 0.00 | 0.00 | 0.00 | 10 | 957.8 |
| 20260831102337 | 53 | 258 | 4.3 | 11.3 | 0.00 | 0.00 | 0.00 | 10 | 957.7 |
| 20260831101837 | 53 | 257 | 5.2 | 12.2 | 0.00 | 0.00 | 0.00 | 10 | 957.7 |
| 20260831101337 | 53 | 227 | 4.3 | 12.2 | 0.00 | 0.00 | 0.00 | 10 | 957.8 |
| 20260831100837 | 53 | 222 | 2.6 | 8.7 | 0.00 | 0.00 | 0.00 | 10 | 958.1 |
| 20260831100337 | 53 | 135 | 2.6 | 7.8 | 0.00 | 0.00 | 0.00 | 10 | 958.1 |
| 20260831095837 | 53 | 46 | 2.6 | 7.0 | 0.00 | 0.00 | 0.00 | 10 | 958.0 |
| 20260831095337 | 53 | 228 | 2.6 | 7.0 | 0.00 | 0.00 | 0.00 | 10 | 958.0 |
| 20260831094837 | 53 | 196 | 1.7 | 6.1 | 0.00 | 0.00 | 0.00 | 10 | 957.9 |
| 20260831094337 | 53 | 150 | 1.7 | 7.8 | 0.00 | 0.00 | 0.00 | 10 | 957.9 |
| 20260831093837 | 53 | 167 | 2.6 | 7.8 | 0.00 | 0.00 | 0.00 | 10 | 957.9 |
| 20260831093337 | 53 | 26 | 2.6 | 6.1 | 0.00 | 0.00 | 0.00 | 10 | 957.8 |
| 20260831092837 | 53 | 317 | 2.6 | 8.7 | 0.00 | 0.00 | 0.00 | 10 | 957.9 |
| 20260831092337 | 53 | 254 | 2.6 | 8.7 | 0.00 | 0.00 | 0.00 | 10 | 957.7 |
| 20260831091837 | 53 | 211 | 3.5 | 7.8 | 0.00 | 0.00 | 0.00 | 10 | 957.7 |
| 20260831091337 | 53 | 244 | 3.5 | 7.8 | 0.00 | 0.00 | 0.00 | 10 | 957.7 |
| 20260831090837 | 53 | 295 | 3.5 | 7.0 | 0.00 | 0.00 | 0.00 | 10 | 957.7 |
| 20260831090337 | 53 | 289 | 3.5 | 7.0 | 0.00 | 0.00 | 0.00 | 10 | 957.6 |
| 20260831085836 | 53 | 252 | 2.6 | 7.0 | 0.00 | 0.00 | 0.00 | 10 | 957.4 |
| 20260831085336 | 54 | 311 | 2.6 | 6.1 | 0.00 | 0.00 | 0.00 | 10 | 957.5 |
| 20260831084836 | 54 | 245 | 2.6 | 7.8 | 0.00 | 0.00 | 0.00 | 10 | 957.5 |
| 20260831084336 | 53 | 287 | 2.6 | 7.8 | 0.00 | 0.00 | 0.00 | 10 | 957.4 |
| 20260831083836 | 53 | 282 | 2.6 | 5.2 | 0.00 | 0.00 | 0.00 | 10 | 957.5 |
| 20260831083336 | 53 | 249 | 1.7 | 5.2 | 0.00 | 0.00 | 0.00 | 10 | 957.4 |
| 20260831082836 | 53 | 303 | 2.6 | 7.8 | 0.00 | 0.00 | 0.00 | 10 | 957.4 |
| 20260831082336 | 53 | 266 | 1.7 | 7.8 | 0.00 | 0.00 | 0.00 | 10 | 957.4 |
| 20260831081836 | 53 | 232 | 1.7 | 7.0 | 0.00 | 0.00 | 0.00 | 10 | 957.5 |
| 20260831081336 | 53 | 267 | 2.6 | 7.0 | 0.00 | 0.00 | 0.00 | 10 | 957.7 |
| 20260831080836 | 53 | 242 | 2.6 | 7.0 | 0.00 | 0.00 | 0.00 | 10 | 957.5 |
| 20260831080336 | 53 | 226 | 1.7 | 8.7 | 0.00 | 0.00 | 0.00 | 10 | 957.6 |
| 20260831075836 | 53 | 234 | 1.7 | 8.7 | 0.00 | 0.00 | 0.00 | 10 | 957.8 |
| 20260831075336 | 53 | 229 | 1.7 | 5.2 | 0.00 | 0.00 | 0.00 | 10 | 957.7 |
| 20260831074835 | 52 | 258 | 1.7 | 5.2 | 0.00 | 0.00 | 0.00 | 10 | 957.6 |
| 20260831074335 | 52 | 246 | 2.6 | 5.2 | 0.00 | 0.00 | 0.00 | 10 | 957.7 |
| 20260831073835 | 52 | 236 | 2.6 | 5.2 | 0.00 | 0.00 | 0.00 | 10 | 957.6 |
| 20260831073335 | 52 | 213 | 2.6 | 7.8 | 0.00 | 0.00 | 0.00 | 10 | 957.7 |
| 20260831072835 | 52 | 270 | 3.5 | 8.7 | 0.00 | 0.00 | 0.00 | 10 | 957.7 |
| 20260831072335 | 52 | 270 | 4.3 | 8.7 | 0.00 | 0.00 | 0.00 | 10 | 957.6 |
| 20260831071835 | 52 | 330 | 4.3 | 10.4 | 0.00 | 0.00 | 0.00 | 10 | 957.5 |
| 20260831071335 | 52 | 262 | 4.3 | 10.4 | 0.00 | 0.00 | 0.00 | 10 | 957.5 |
| 20260831070835 | 52 | 272 | 4.3 | 10.4 | 0.00 | 0.00 | 0.00 | 10 | 957.6 |
| 20260831070335 | 52 | 324 | 3.5 | 8.7 | 0.00 | 0.00 | 0.00 | 10 | 957.6 |
| 20260831065835 | 52 | 241 | 3.5 | 8.7 | 0.00 | 0.00 | 0.00 | 10 | 957.6 |
| 20260831065335 | 52 | 294 | 3.5 | 9.6 | 0.00 | 0.00 | 0.00 | 10 | 957.7 |
| 20260831064835 | 52 | 247 | 4.3 | 9.6 | 0.00 | 0.00 | 0.00 | 10 | 957.6 |
| 20260831064335 | 52 | 269 | 4.3 | 9.6 | 0.00 | 0.00 | 0.00 | 10 | 957.6 |
| 20260831063835 | 52 | 274 | 3.5 | 8.7 | 0.00 | 0.00 | 0.00 | 10 | 957.6 |
| 20260831063335 | 52 | 282 | 3.5 | 8.7 | 0.00 | 0.00 | 0.00 | 10 | 957.6 |
| 20260831062834 | 52 | 284 | 3.5 | 8.7 | 0.00 | 0.00 | 0.00 | 10 | 957.6 |
| 20260831062334 | 52 | 322 | 3.5 | 8.7 | 0.00 | 0.00 | 0.00 | 10 | 957.6 |
| 20260831061834 | 52 | 249 | 3.5 | 8.7 | 0.00 | 0.00 | 0.00 | 10 | 957.6 |
| 20260831061334 | 52 | 335 | 2.6 | 7.0 | 0.00 | 0.00 | 0.00 | 10 | 957.5 |
| 20260831060834 | 52 | 274 | 2.6 | 7.0 | 0.00 | 0.00 | 0.00 | 10 | 957.7 |
| 20260831060334 | 52 | 252 | 2.6 | 7.0 | 0.00 | 0.00 | 0.00 | 10 | 957.6 |
| 20260831055834 | 52 | 249 | 2.6 | 7.8 | 0.00 | 0.00 | 0.00 | 10 | 957.5 |
| 20260831055334 | 52 | 260 | 2.6 | 7.8 | 0.00 | 0.00 | 0.00 | 10 | 957.5 |
| 20260831054834 | 52 | 218 | 1.7 | 5.2 | 0.00 | 0.00 | 0.00 | 10 | 957.7 |
| 20260831054304 | 52 | 185 | 1.7 | 6.1 | 0.00 | 0.00 | 0.00 | 10 | 957.6 |
| 20260831053804 | 52 | 276 | 1.7 | 6.1 | 0.00 | 0.00 | 0.00 | 10 | 957.7 |
| 20260831053304 | 52 | 329 | 2.6 | 6.1 | 0.00 | 0.00 | 0.00 | 10 | 957.7 |
| 20260831052804 | 52 | 261 | 1.7 | 8.7 | 0.00 | 0.00 | 0.00 | 10 | 957.7 |
| 20260831052306 | 52 | 246 | 1.7 | 8.7 | 0.00 | 0.00 | 0.00 | 10 | 957.7 |
| 20260831051804 | 53 | 260 | 1.7 | 7.8 | 0.00 | 0.00 | 0.00 | 10 | 957.6 |
| 20260831051304 | 52 | 257 | 1.7 | 5.2 | 0.00 | 0.00 | 0.00 | 10 | 957.6 |
| 20260831050804 | 52 | 282 | 1.7 | 4.3 | 0.00 | 0.00 | 0.00 | 10 | 957.6 |
| 20260831050303 | 53 | 237 | 0.9 | 3.5 | 0.00 | 0.00 | 0.00 | 10 | 957.7 |
| 20260831045803 | 53 | 89 | 0.9 | 4.3 | 0.00 | 0.00 | 0.00 | 10 | 957.8 |
| 20260831045306 | 53 | 278 | 0.9 | 4.3 | 0.00 | 0.00 | 0.00 | 10 | 957.7 |
| 20260831044803 | 52 | 253 | 0.9 | 4.3 | 0.00 | 0.00 | 0.00 | 10 | 957.8 |
| 20260831044303 | 52 | 178 | 0.9 | 4.3 | 0.00 | 0.00 | 0.00 | 10 | 957.8 |
| 20260831043803 | 52 | 246 | 0.9 | 4.3 | 0.00 | 0.00 | 0.00 | 10 | 957.7 |
| 20260831043303 | 52 | 174 | 1.7 | 5.2 | 0.00 | 0.00 | 0.00 | 10 | 957.7 |
| 20260831042803 | 52 | 240 | 1.7 | 7.8 | 0.00 | 0.00 | 0.00 | 10 | 957.8 |
| 20260831042306 | 52 | 128 | 2.6 | 7.8 | 0.00 | 0.00 | 0.00 | 10 | 957.7 |
| 20260831041803 | 52 | 238 | 3.5 | 7.8 | 0.00 | 0.00 | 0.00 | 10 | 957.7 |
| 20260831041303 | 52 | 288 | 3.5 | 7.0 | 0.00 | 0.00 | 0.00 | 10 | 957.7 |
| 20260831040803 | 53 | 285 | 3.5 | 6.1 | 0.00 | 0.00 | 0.00 | 10 | 957.5 |
| 20260831040303 | 53 | 292 | 2.6 | 5.2 | 0.00 | 0.00 | 0.00 | 10 | 957.6 |
| 20260831035803 | 53 | 264 | 1.7 | 4.3 | 0.00 | 0.00 | 0.00 | 10 | 957.6 |
| 20260831035306 | 53 | 292 | 1.7 | 4.3 | 0.00 | 0.00 | 0.00 | 10 | 957.6 |
| 20260831034802 | 53 | 241 | 0.9 | 4.3 | 0.00 | 0.00 | 0.00 | 10 | 957.8 |
| 20260831034302 | 53 | 290 | 0.9 | 3.5 | 0.00 | 0.00 | 0.00 | 10 | 957.6 |
| 20260831033802 | 53 | 229 | 0.9 | 3.5 | 0.00 | 0.00 | 0.00 | 10 | 957.7 |
| 20260831033302 | 53 | 231 | 1.7 | 5.2 | 0.00 | 0.00 | 0.00 | 10 | 957.8 |
| 20260831032802 | 53 | 199 | 1.7 | 5.2 | 0.00 | 0.00 | 0.00 | 10 | 957.9 |
| 20260831032306 | 53 | 262 | 0.9 | 5.2 | 0.00 | 0.00 | 0.00 | 10 | 957.9 |
| 20260831031802 | 53 | 114 | 1.7 | 5.2 | 0.00 | 0.00 | 0.00 | 10 | 957.9 |
| 20260831031302 | 53 | 328 | 1.7 | 5.2 | 0.00 | 0.00 | 0.00 | 10 | 957.9 |
| 20260831030802 | 53 | 254 | 1.7 | 7.0 | 0.00 | 0.00 | 0.00 | 10 | 957.9 |
| 20260831030302 | 53 | 267 | 1.7 | 7.0 | 0.00 | 0.00 | 0.00 | 10 | 957.8 |
| 20260831025802 | 53 | 235 | 1.7 | 7.0 | 0.00 | 0.00 | 0.00 | 10 | 957.7 |
| 20260831025306 | 53 | 300 | 1.7 | 5.2 | 0.00 | 0.00 | 0.00 | 10 | 957.8 |
| 20260831024802 | 53 | 274 | 1.7 | 5.2 | 0.00 | 0.00 | 0.00 | 10 | 957.7 |
| 20260831024302 | 53 | 315 | 2.6 | 6.1 | 0.00 | 0.00 | 0.00 | 10 | 957.7 |
| 20260831023801 | 54 | 277 | 2.6 | 6.1 | 0.00 | 0.00 | 0.00 | 99 | 957.7 |
| 20260831023301 | 54 | 239 | 2.6 | 6.1 | 0.00 | 0.00 | 0.00 | 98 | 957.8 |
| 20260831022801 | 54 | 252 | 1.7 | 7.0 | 0.00 | 0.00 | 0.00 | 98 | 957.8 |
| 20260831022301 | 54 | 284 | 2.6 | 8.7 | 0.00 | 0.00 | 0.00 | 98 | 957.8 |
| 20260831021801 | 54 | 256 | 2.6 | 8.7 | 0.00 | 0.00 | 0.00 | 97 | 957.8 |
| 20260831021301 | 54 | 240 | 2.6 | 6.1 | 0.00 | 0.00 | 0.00 | 97 | 957.9 |
| 20260831020801 | 54 | 249 | 2.6 | 6.1 | 0.00 | 0.00 | 0.00 | 97 | 957.8 |
| 20260831020301 | 55 | 201 | 1.7 | 5.2 | 0.00 | 0.00 | 0.00 | 97 | 957.8 |
| 20260831015801 | 55 | 205 | 1.7 | 5.2 | 0.00 | 0.00 | 0.00 | 97 | 957.9 |
| 20260831015301 | 55 | 226 | 1.7 | 6.1 | 0.00 | 0.00 | 0.00 | 97 | 958.0 |
| 20260831014801 | 55 | 246 | 2.6 | 6.1 | 0.00 | 0.00 | 0.00 | 97 | 958.0 |
| 20260831014301 | 55 | 197 | 2.6 | 5.2 | 0.00 | 0.00 | 0.00 | 97 | 958.1 |
| 20260831013801 | 55 | 220 | 1.7 | 5.2 | 0.00 | 0.00 | 0.00 | 97 | 958.1 |
| 20260831013301 | 55 | 215 | 1.7 | 5.2 | 0.00 | 0.00 | 0.00 | 97 | 958.1 |
| 20260831012801 | 55 | 154 | 1.7 | 5.2 | 0.00 | 0.00 | 0.00 | 97 | 958.1 |